DW1289 Weather Reports


time (UTC)temp
C
wind
direction
speed
KPH
gust
KPH
rain 1hr
cm
rain 24hr
cm
rain mn
cm
humidity
%
barometer
mb
20260906120016 23 45 3.2 9.7 0.00 0.00 0.00 88 1014.1
20260906115016 23 68 4.8 12.9 0.00 0.00 0.00 88 1014.1
20260906114016 23 45 3.2 9.7 0.00 0.00 0.00 88 1013.9
20260906113036 23 68 3.2 9.7 0.00 0.00 0.00 88 1013.9
20260906112016 23 45 3.2 14.5 0.00 0.00 0.00 88 1013.7
20260906111016 23 45 3.2 17.7 0.00 0.00 0.00 87 1013.5
20260906110016 23 45 4.8 11.3 0.00 0.00 0.00 87 1013.5
20260906105016 24 45 3.2 9.7 0.00 0.00 0.00 87 1013.5
20260906104036 24 45 4.8 11.3 0.00 0.00 0.00 86 1013.5
20260906103016 24 23 1.6 9.7 0.00 0.00 0.00 85 1013.4
20260906102016 24 45 3.2 9.7 0.00 0.00 0.00 85 1013.3
20260906101016 24 45 3.2 8.0 0.00 0.00 0.00 85 1013.3
20260906100016 24 45 1.6 8.0 0.00 0.00 0.00 85 1013.1
20260906095016 24 45 1.6 4.8 0.00 0.00 0.00 85 1012.9
20260906094056 24 45 1.6 4.8 0.00 0.00 0.00 85 1012.8
20260906093016 24 0.0 6.4 0.00 0.00 0.00 84 1012.6
20260906092016 25 0.0 4.8 0.00 0.00 0.00 84 1012.7
20260906091016 25 0.0 1.6 0.00 0.00 0.00 83 1012.6
20260906090016 25 0.0 3.2 0.00 0.00 0.00 83 1012.4
20260906085016 25 0.0 3.2 0.00 0.00 0.00 83 1012.5
20260906084016 25 45 1.6 8.0 0.00 0.00 0.00 81 1012.5
20260906083016 25 45 3.2 12.9 0.00 0.00 0.00 81 1012.4
20260906082016 25 45 1.6 9.7 0.00 0.00 0.00 82 1012.5
20260906081016 25 45 1.6 6.4 0.00 0.00 0.00 84 1012.4
20260906080016 25 0.0 0.0 0.00 0.00 0.00 85 1012.5
20260906075016 25 0.0 1.6 0.00 0.00 0.00 85 1012.5
20260906074016 25 0.0 3.2 0.00 0.00 0.00 86 1012.2
20260906073016 25 0.0 0.0 0.00 0.00 0.00 86 1012.2
20260906072016 25 0.0 0.0 0.00 0.00 0.00 86 1012.2
20260906071016 25 0.0 0.0 0.00 0.00 0.00 85 1012.4
20260906070036 25 0.0 0.0 0.00 0.00 0.00 85 1012.6
20260906065056 26 0.0 0.0 0.00 0.00 0.00 85 1012.5
20260906064016 26 0.0 4.8 0.00 0.00 0.00 85 1012.7
20260906063016 26 0.0 0.0 0.00 0.00 0.00 85 1012.8
20260906062016 26 0.0 0.0 0.00 0.00 0.00 85 1012.9
20260906061016 26 0.0 0.0 0.00 0.00 0.00 84 1012.9
20260906060016 26 0.0 0.0 0.00 0.00 0.00 83 1012.7
20260906055016 26 0.0 1.6 0.00 0.00 0.00 83 1012.6
20260906054016 26 0.0 0.0 0.00 0.00 0.00 83 1012.6
20260906053016 26 0.0 3.2 0.00 0.00 0.00 83 1012.5
20260906052016 26 0.0 6.4 0.00 0.00 0.00 83 1012.5
20260906051016 27 0.0 3.2 0.00 0.00 0.00 82 1012.5
20260906050016 27 0.0 0.0 0.00 0.00 0.00 82 1012.5
20260906045016 27 0.0 1.6 0.00 0.00 0.00 82 1012.5
20260906044016 27 0.0 3.2 0.00 0.00 0.00 81 1012.4
20260906043016 27 0.0 1.6 0.00 0.00 0.00 81 1012.2
20260906042016 27 0.0 1.6 0.00 0.00 0.00 81 1012.0
20260906041016 27 0.0 4.8 0.00 0.00 0.00 81 1012.0
20260906040016 27 0.0 0.0 0.00 0.00 0.00 81 1011.8
20260906035016 27 0.0 3.2 0.00 0.00 0.00 81 1011.9
20260906034016 27 248 1.6 3.2 0.00 0.00 0.00 81 1011.8
20260906033037 27 248 1.6 4.8 0.00 0.00 0.00 81 1011.7
20260906032016 28 248 3.2 9.7 0.00 0.00 0.00 81 1011.7
20260906031016 28 248 3.2 8.0 0.00 0.00 0.00 81 1011.8
20260906030016 28 0.0 0.0 0.00 0.00 0.00 79 1011.9
20260906025016 28 0.0 0.0 0.00 0.00 0.00 77 1012.0
20260906024036 28 0.0 0.0 0.00 0.00 0.00 76 1011.9
20260906023036 28 0.0 0.0 0.00 0.00 0.00 75 1011.9
20260906022016 28 0.0 0.0 0.00 0.00 0.00 74 1011.7
20260906021016 29 0.0 0.0 0.00 0.00 0.00 72 1011.4
20260906020016 29 0.0 0.0 0.00 0.00 0.00 72 1011.4
20260906015016 29 0.0 0.0 0.00 0.00 0.00 71 1011.2
20260906014016 30 0.0 0.0 0.00 0.00 0.00 71 1011.0
20260906013016 30 0.0 0.0 0.00 0.00 0.00 70 1010.8
20260906012016 30 0.0 0.0 0.00 0.00 0.00 69 1010.9
20260906011036 30 0.0 0.0 0.00 0.00 0.00 68 1010.8
20260906010036 31 0.0 0.0 0.00 0.00 0.00 67 1010.6
20260906005016 31 0.0 0.0 0.00 0.00 0.00 65 1010.5
20260906004016 31 0.0 0.0 0.00 0.00 0.00 65 1010.7
20260906003016 32 0.0 0.0 0.00 0.00 0.00 64 1010.8
20260906002016 32 0.0 1.6 0.00 0.00 0.00 62 1010.9
20260906001016 32 0.0 3.2 0.00 0.00 0.00 61 1011.1
20260906000036 32 0.0 0.0 0.00 0.00 0.00 60 1011.2
20260905235016 32 0.0 0.0 0.00 0.00 0.00 59 1011.2
20260905234036 33 0.0 0.0 0.00 0.00 0.00 58 1011.2
20260905233016 33 0.0 1.6 0.00 0.00 0.00 57 1011.3
20260905232056 33 0.0 3.2 0.00 0.00 0.00 56 1011.3
20260905231016 34 0.0 4.8 0.00 0.00 0.00 54 1011.1
20260905230016 34 0.0 3.2 0.00 0.00 0.00 53 1011.0
20260905225036 35 270 1.6 4.8 0.00 0.00 0.00 53 1011.0
20260905224016 35 248 3.2 6.4 0.00 0.00 0.00 51 1011.0
20260905223016 36 248 3.2 8.0 0.00 0.00 0.00 50 1010.8
20260905222056 36 248 3.2 9.7 0.00 0.00 0.00 50 1010.9
20260905221036 36 248 3.2 11.3 0.00 0.00 0.00 48 1010.9
20260905220016 36 225 3.2 8.0 0.00 0.00 0.00 48 1010.8
20260905215016 36 225 4.8 11.3 0.00 0.00 0.00 49 1011.1
20260905214016 36 248 3.2 14.5 0.00 0.00 0.00 49 1011.1
20260905213016 36 248 4.8 12.9 0.00 0.00 0.00 47 1011.0
20260905212036 37 248 4.8 12.9 0.00 0.00 0.00 48 1011.1
20260905211016 37 248 3.2 11.3 0.00 0.00 0.00 47 1011.0
20260905210016 37 248 4.8 16.1 0.00 0.00 0.00 48 1011.1
20260905205016 37 248 4.8 12.9 0.00 0.00 0.00 48 1011.1
20260905204016 37 248 1.6 6.4 0.00 0.00 0.00 48 1011.4
20260905203016 37 248 3.2 11.3 0.00 0.00 0.00 49 1011.5
20260905202016 37 248 1.6 11.3 0.00 0.00 0.00 48 1011.7
20260905201016 36 248 3.2 11.3 0.00 0.00 0.00 48 1011.8
20260905200016 36 248 4.8 12.9 0.00 0.00 0.00 49 1011.9
20260905195016 37 248 1.6 6.4 0.00 0.00 0.00 49 1012.1
20260905194016 36 248 3.2 11.3 0.00 0.00 0.00 49 1012.3
20260905193016 36 248 3.2 9.7 0.00 0.00 0.00 49 1012.4
20260905192016 36 225 3.2 8.0 0.00 0.00 0.00 46 1012.6
20260905191036 36 135 3.2 6.4 0.00 0.00 0.00 48 1012.6
20260905190016 36 158 3.2 6.4 0.00 0.00 0.00 47 1013.0
20260905185036 36 248 4.8 11.3 0.00 0.00 0.00 47 1013.1
20260905184016 36 248 3.2 9.7 0.00 0.00 0.00 49 1013.1
20260905183116 36 248 3.2 12.9 0.00 0.00 0.00 50 1013.3
20260905182016 35 248 4.8 12.9 0.00 0.00 0.00 48 1013.4
20260905181016 35 248 4.8 9.7 0.00 0.00 0.00 50 1013.4
20260905180016 35 248 4.8 11.3 0.00 0.00 0.00 51 1013.4
20260905175016 35 248 3.2 12.9 0.00 0.00 0.00 52 1013.5
20260905174016 35 248 3.2 12.9 0.00 0.00 0.00 51 1013.7
20260905173016 35 248 3.2 12.9 0.00 0.00 0.00 52 1013.7
20260905172016 34 248 4.8 16.1 0.00 0.00 0.00 54 1013.9
20260905171136 33 248 3.2 11.3 0.00 0.00 0.00 56 1013.9
20260905170016 33 248 3.2 9.7 0.00 0.00 0.00 55 1014.2
20260905165016 33 68 3.2 11.3 0.00 0.00 0.00 57 1014.4
20260905164036 33 248 3.2 11.3 0.00 0.00 0.00 59 1014.6
20260905163016 32 135 1.6 8.0 0.00 0.00 0.00 60 1014.8
20260905162016 32 68 3.2 9.7 0.00 0.00 0.00 57 1014.8
20260905161016 32 45 3.2 8.0 0.00 0.00 0.00 58 1014.8
20260905160036 32 180 1.6 6.4 0.00 0.00 0.00 59 1014.7
20260905155056 31 113 1.6 8.0 0.00 0.00 0.00 60 1014.8
20260905154016 31 135 1.6 9.7 0.00 0.00 0.00 63 1014.8
20260905153016 30 45 3.2 8.0 0.00 0.00 0.00 63 1014.9
20260905152016 30 270 1.6 6.4 0.00 0.00 0.00 67 1014.9
20260905151016 29 45 3.2 14.5 0.00 0.00 0.00 68 1015.0
20260905150016 29 45 4.8 9.7 0.00 0.00 0.00 69 1015.0
20260905145036 28 45 3.2 12.9 0.00 0.00 0.00 71 1015.2
20260905144036 28 45 3.2 11.3 0.00 0.00 0.00 72 1015.2
20260905143016 27 45 4.8 16.1 0.00 0.00 0.00 73 1015.2
20260905142016 27 68 4.8 14.5 0.00 0.00 0.00 75 1015.1
20260905141016 27 45 6.4 14.5 0.00 0.00 0.00 77 1015.2
20260905140036 26 45 3.2 11.3 0.00 0.00 0.00 79 1015.4
20260905135016 26 45 6.4 19.3 0.00 0.00 0.00 81 1015.6
20260905134016 26 45 6.4 14.5 0.00 0.00 0.00 83 1015.4
20260905133016 26 45 6.4 16.1 0.00 0.00 0.00 83 1015.5
20260905132016 26 45 8.0 19.3 0.00 0.00 0.00 83 1015.8
20260905131036 26 45 4.8 16.1 0.00 0.00 0.00 88 1015.7
20260905130016 26 45 3.2 16.1 0.00 0.00 0.00 90 1016.1
20260905125016 26 0.0 4.8 0.00 0.00 0.00 92 1015.3
20260905124016 25 270 1.6 3.2 0.00 0.00 0.00 92 1015.0
20260905123016 25 0.0 4.8 0.00 0.00 0.00 92 1014.9
20260905122016 25 248 1.6 6.4 0.00 0.00 0.00 92 1015.0
20260905121016 25 0.0 0.0 0.00 0.00 0.00 92 1014.9